Total_Precipitation_Accumulation
-0.06 -0.00 -0.00 -0.11 -0.06 -0.06 -0.13 -0.11 -0.12 -0.12 -0.12 -0.11 -0.19 -0.19 -0.28 -0.41 -0.41 -0.32 -0.13 -0.16 -0.16 -0.27 0.13 0.34 0.01 0.01 -0.01 0.03 0.02 0.02 0.01 0.01 0.06 0.06 0.05 0.06 0.06 0.04 0.04 0.03 0.03 0.07 0.10 0.08 0.05 0.05 0.03 0.00 0.00 0.00 0.00 0.00 0.00 0.00 0.00 0.00 0.00 0.00 0.00 0.00 0.00 0.00 0.00 0.00 0.00 0.00 0.00 0.00 0.00 0.00 0.00 0.00 0.00 0.00 0.00 0.00 0.00 0.00 0.00 0.00 0.00 0.00 0.01 0.02 0.00 0.00 0.00 0.00 0.00 0.00 0.00 0.00 0.00 0.00 0.00 0.00 0.00 0.00 0.00 0.00 0.00 0.00 0.00
-0.11 -0.07 -0.05 -0.13 -0.13 -0.13 -0.16 -0.14 -0.14 -0.14 -0.15 -0.17 -0.21 -0.21 -0.37 -0.44 -0.44 -0.44 -0.45 -0.16 -0.16 -0.13 0.02 0.09 -0.02 -0.02 -0.05 0.01 0.01 0.01 0.01 0.02 0.02 0.02 0.01 0.03 0.03 0.02 0.02 0.01 0.01 0.02 0.08 0.02 0.04 0.04 0.06 0.00 0.00 0.00 0.00 0.00 0.00 0.00 0.00 0.00 0.00 0.00 0.00 0.00 0.00 0.00 0.00 0.00 0.00 0.00 0.00 0.00 0.00 0.00 0.00 0.00 0.00 0.00 0.00 0.00 0.00 0.00 0.00 0.00 0.00 0.00 0.00 0.02 0.00 0.00 0.00 0.00 0.00 0.00 0.00 0.00 0.00 0.00 0.00 0.00 0.00 0.00 0.00 0.00 0.00 0.00 0.00
-0.07 -0.21 -0.21 -0.13 -0.10 -0.10 -0.13 -0.11 -0.17 -0.17 -0.15 -0.23 -0.22 -0.22 -0.29 -0.47 -0.47 -0.55 -0.47 -0.22 -0.22 -0.12 -0.02 -0.06 -0.02 -0.02 -0.01 -0.02 0.06 0.06 0.05 0.00 0.00 0.00 0.00 0.01 0.01 0.00 0.00 0.01 0.01 0.00 0.01 0.00 0.08 0.08 0.09 0.02 0.00 0.00 0.00 0.00 0.00 0.00 0.00 0.00 0.00 0.00 0.00 0.00 0.00 0.00 0.00 0.00 0.00 0.00 0.00 0.00 0.00 0.00 0.00 0.00 0.00 0.00 0.00 -0.02 -0.02 -0.01 0.00 0.00 0.00 0.00 0.00 0.01 0.00 0.00 0.00 0.00 0.00 0.00 0.00 0.00 0.00 0.00 0.00 0.00 0.00 0.00 0.00 0.00 0.00 0.00 0.00
-0.04 -0.19 -0.26 -0.14 -0.12 -0.12 -0.06 -0.11 -0.29 -0.29 -0.30 -0.27 -0.29 -0.29 -0.29 -0.39 -0.39 -0.54 -0.41 -0.38 -0.38 -0.26 -0.14 -0.17 -0.07 -0.07 -0.01 0.05 0.04 0.04 0.04 0.00 0.00 0.00 0.00 0.00 0.00 0.00 0.00 0.00 0.00 0.01 0.00 0.00 0.01 0.01 0.12 0.02 0.00 0.00 0.00 0.00 0.00 0.00 0.00 0.00 0.00 0.00 0.00 0.00 0.00 0.00 0.00 0.00 0.00 0.00 0.00 0.00 0.00 0.00 0.00 0.00 0.00 0.00 -0.01 -0.07 -0.07 -0.05 -0.02 0.00 0.00 0.00 0.00 0.01 0.00 0.00 0.00 0.00 0.00 0.00 0.00 0.00 0.00 0.00 0.00 0.00 0.00 0.00 0.00 0.00 0.00 0.00 0.00
-0.06 -0.11 -0.18 -0.15 -0.22 -0.22 -0.18 -0.13 -0.27 -0.27 -0.41 -0.37 -0.32 -0.32 -0.33 -0.44 -0.44 -0.53 -0.46 -0.40 -0.40 -0.22 -0.16 -0.19 -0.20 -0.20 -0.05 -0.01 0.00 0.00 0.02 0.00 0.00 0.00 0.00 0.00 0.00 0.00 0.00 0.00 0.00 0.01 0.01 0.00 0.07 0.07 0.17 0.06 0.00 0.00 0.00 0.00 0.00 0.00 0.00 0.00 0.00 0.00 0.00 0.00 0.00 0.00 0.00 0.00 0.00 0.00 0.00 0.00 0.00 0.00 0.00 -0.00 -0.00 -0.00 -0.09 -0.12 -0.12 -0.07 -0.03 0.00 0.00 0.00 0.00 0.00 0.00 0.00 0.00 0.00 0.00 0.00 0.00 0.00 0.00 0.00 0.00 0.00 0.00 0.00 0.00 0.00 0.00 0.00 0.00
-0.07 -0.02 -0.08 -0.09 -0.08 -0.08 -0.15 -0.20 -0.22 -0.22 -0.48 -0.44 -0.39 -0.39 -0.39 -0.56 -0.56 -0.57 -0.45 -0.34 -0.34 -0.21 -0.12 -0.06 -0.11 -0.11 -0.08 -0.01 0.00 0.00 0.00 0.00 0.00 0.00 0.00 0.00 0.00 0.00 0.00 0.00 0.00 0.01 0.01 0.10 0.14 0.14 0.16 0.03 0.00 0.00 0.00 0.00 0.00 0.00 0.00 0.00 0.00 0.00 0.00 0.00 0.00 0.00 0.00 0.00 0.00 0.00 0.00 0.00 0.00 0.00 0.00 -0.03 -0.12 -0.12 -0.10 -0.09 -0.09 -0.06 -0.01 0.00 0.00 0.00 0.00 0.00 0.00 0.00 0.00 0.00 0.00 0.00 0.00 0.00 0.00 0.00 0.00 0.00 0.00 0.00 0.00 0.00 0.00 0.00 0.00
-0.05 -0.04 -0.02 -0.03 -0.07 -0.07 -0.13 -0.22 -0.23 -0.23 -0.46 -0.44 -0.40 -0.40 -0.45 -0.62 -0.62 -0.61 -0.41 -0.33 -0.33 -0.23 -0.09 -0.09 -0.09 -0.09 -0.06 -0.00 0.00 0.00 0.00 0.00 0.00 0.00 0.00 0.00 0.00 0.00 0.00 0.00 0.00 0.00 0.05 0.20 0.19 0.19 0.21 0.02 0.00 0.00 0.00 0.00 0.00 0.00 0.00 0.00 0.00 0.00 0.00 0.00 0.00 0.00 0.00 0.00 0.00 0.00 0.00 0.00 0.00 0.00 0.00 -0.08 -0.19 -0.19 -0.12 -0.06 -0.06 -0.01 0.00 0.00 0.00 0.00 0.00 0.00 0.00 0.00 0.00 0.00 0.00 0.00 0.00 0.00 0.00 0.00 0.00 0.00 0.00 0.00 0.00 0.00 0.00 0.00 0.00
-0.07 -0.06 -0.15 -0.03 -0.07 -0.07 -0.11 -0.20 -0.32 -0.32 -0.38 -0.45 -0.45 -0.45 -0.54 -0.65 -0.65 -0.57 -0.44 -0.30 -0.30 -0.35 -0.26 -0.14 -0.10 -0.10 -0.03 -0.00 0.00 0.00 0.00 0.00 0.00 0.00 0.00 0.00 0.00 0.00 -0.00 0.00 0.00 0.00 0.14 0.23 0.21 0.21 0.19 0.12 0.00 0.00 0.00 0.00 0.00 0.00 0.00 0.00 0.00 0.00 0.00 0.00 0.00 0.00 0.00 0.00 0.00 0.00 0.00 0.00 0.00 0.00 -0.11 -0.20 -0.15 -0.15 -0.12 -0.08 -0.08 -0.00 0.00 0.00 0.00 0.00 0.00 0.00 0.00 0.00 0.00 0.00 0.00 0.00 0.00 0.00 0.00 0.00 0.00 0.00 0.00 0.00 0.00 0.00 0.00 0.00 0.00
-0.02 -0.03 -0.12 -0.18 -0.04 -0.04 -0.05 -0.19 -0.23 -0.23 -0.36 -0.37 -0.43 -0.43 -0.57 -0.67 -0.67 -0.55 -0.48 -0.25 -0.25 -0.27 -0.25 -0.18 -0.10 -0.10 -0.07 -0.00 0.00 0.00 0.00 0.00 0.00 0.00 0.00 0.00 0.00 0.00 -0.00 0.00 0.00 0.01 0.01 0.25 0.19 0.19 0.13 0.05 0.00 0.00 0.00 0.00 0.00 0.00 0.00 0.00 0.00 0.00 0.00 0.00 0.00 0.00 0.00 0.00 0.00 0.00 -0.00 0.00 0.00 0.00 -0.23 -0.29 -0.19 -0.19 -0.13 -0.04 -0.04 0.00 0.00 0.00 0.00 0.00 0.00 0.00 0.00 0.00 0.00 0.00 0.00 0.00 0.00 0.00 0.00 0.00 0.00 0.00 0.00 0.00 0.00 0.00 0.00 0.00 0.00
-0.01 -0.02 -0.04 -0.13 -0.04 -0.04 -0.04 -0.08 -0.17 -0.17 -0.28 -0.33 -0.38 -0.38 -0.59 -0.74 -0.74 -0.53 -0.49 -0.19 -0.19 -0.22 -0.31 -0.24 -0.10 -0.10 -0.04 -0.02 0.00 0.00 0.00 0.00 0.00 0.00 0.00 0.00 0.00 0.00 -0.00 -0.00 -0.00 0.00 0.04 0.19 0.15 0.15 0.07 0.02 0.00 0.00 0.00 0.00 0.00 0.00 0.00 0.00 0.00 0.00 0.00 0.00 0.00 0.00 0.00 0.00 -0.01 -0.01 -0.03 -0.01 -0.00 -0.00 -0.26 -0.23 -0.15 -0.15 -0.10 -0.02 -0.02 -0.00 0.00 0.00 0.00 0.00 0.00 0.00 0.00 0.00 0.00 0.00 0.00 0.00 0.00 0.00 0.00 0.00 0.00 0.00 0.00 0.00 0.00 0.00 0.00 0.00 0.00
-0.01 -0.01 -0.03 -0.04 -0.09 -0.09 -0.05 -0.04 -0.06 -0.06 -0.13 -0.24 -0.36 -0.36 -0.63 -0.70 -0.70 -0.50 -0.50 -0.19 -0.19 -0.25 -0.38 -0.28 -0.20 -0.20 -0.05 -0.01 0.00 0.00 0.00 0.00 0.00 0.00 0.00 0.00 0.00 0.00 0.00 -0.00 -0.00 0.00 0.03 0.16 0.12 0.12 0.05 0.01 0.00 0.00 0.00 0.00 0.00 0.00 0.00 0.00 0.00 0.00 0.00 0.00 0.00 0.00 -0.01 -0.05 -0.05 -0.05 -0.04 -0.02 -0.13 -0.13 -0.24 -0.17 -0.07 -0.07 -0.07 -0.00 -0.00 0.00 0.00 0.00 0.00 0.00 0.00 0.00 0.00 0.00 0.00 0.00 0.00 0.00 0.00 0.00 0.00 0.00 0.00 0.00 0.00 0.00 0.00 0.00 0.00 0.00 0.00
-0.01 -0.01 -0.02 -0.03 -0.15 -0.15 -0.05 -0.05 -0.11 -0.11 -0.14 -0.24 -0.33 -0.33 -0.69 -0.69 -0.69 -0.37 -0.49 -0.46 -0.46 -0.34 -0.39 -0.28 -0.19 -0.19 -0.07 -0.03 -0.02 -0.02 0.00 0.00 0.00 0.00 0.00 0.00 0.00 0.00 0.00 0.00 0.00 0.02 0.08 0.20 0.17 0.17 0.05 0.01 0.00 0.00 0.00 0.00 0.00 0.00 0.00 0.00 0.00 0.00 0.00 0.00 0.00 -0.00 -0.07 -0.11 -0.15 -0.15 -0.04 -0.02 -0.09 -0.09 -0.16 -0.07 -0.03 -0.03 -0.03 -0.00 -0.00 0.00 0.00 0.00 0.00 0.00 0.00 0.00 0.00 0.00 0.00 0.00 0.00 0.00 0.00 0.00 0.00 0.00 0.00 0.00 0.00 0.00 0.00 0.00 0.00 0.00 0.00
-0.01 -0.01 -0.02 -0.02 -0.03 -0.03 -0.09 -0.09 -0.15 -0.15 -0.27 -0.40 -0.53 -0.53 -0.68 -0.71 -0.71 -0.63 -0.55 -0.51 -0.51 -0.42 -0.44 -0.28 -0.26 -0.26 -0.11 -0.06 -0.08 -0.08 -0.01 0.00 0.00 0.00 0.00 0.00 0.00 0.00 0.00 0.01 0.01 0.01 0.08 0.14 0.15 0.15 0.06 0.03 0.00 0.00 0.00 0.00 0.00 0.00 0.00 0.00 0.00 0.00 0.00 0.00 0.00 -0.07 -0.20 -0.15 -0.12 -0.12 -0.07 -0.05 -0.15 -0.15 -0.14 -0.03 -0.01 -0.01 -0.01 0.00 0.00 0.00 0.00 0.00 0.00 0.00 0.00 0.00 0.00 0.00 0.00 0.00 0.00 0.00 0.00 0.00 0.00 0.00 0.00 0.00 0.00 0.00 0.00 0.00 0.00 0.00 0.00
-0.01 -0.01 -0.01 -0.03 -0.03 -0.03 -0.12 -0.11 -0.12 -0.12 -0.31 -0.68 -0.75 -0.75 -0.69 -0.69 -0.69 -0.52 -0.51 -0.56 -0.56 -0.48 -0.49 -0.32 -0.31 -0.31 -0.26 -0.17 -0.15 -0.15 -0.05 -0.03 0.00 0.00 0.00 0.00 0.00 0.00 0.00 0.01 0.01 0.01 0.09 0.13 0.11 0.11 0.02 0.01 0.00 0.00 0.00 0.00 0.00 0.00 0.00 0.00 0.00 0.00 0.00 0.00 0.00 -0.04 -0.20 -0.14 -0.06 -0.06 -0.05 0.00 -0.15 -0.15 -0.09 -0.01 -0.00 -0.00 -0.00 0.00 0.00 0.00 0.00 0.00 0.00 0.00 0.00 0.00 0.00 0.00 0.00 0.00 0.00 0.00 0.00 0.00 0.00 0.00 0.00 0.00 0.00 0.00 0.00 0.00 0.00 0.00 0.00
-0.02 -0.01 -0.01 -0.03 -0.03 -0.03 -0.14 -0.14 -0.12 -0.12 -0.32 -0.60 -0.78 -0.78 -0.76 -0.66 -0.66 -0.57 -0.41 -0.53 -0.53 -0.51 -0.54 -0.46 -0.37 -0.37 -0.29 -0.21 -0.18 -0.18 -0.08 -0.02 0.00 0.00 0.00 0.00 0.00 0.00 0.00 0.01 0.01 0.01 0.00 0.10 0.06 0.06 0.01 0.00 0.00 0.00 0.00 0.00 0.00 0.00 0.00 0.00 0.00 0.00 0.00 -0.01 -0.01 -0.08 -0.13 -0.11 -0.06 -0.06 0.00 0.03 -0.12 -0.12 -0.04 -0.02 0.00 0.00 0.00 0.00 0.00 0.00 0.00 0.00 0.00 0.00 0.00 0.00 0.00 0.00 0.00 0.00 0.00 0.00 0.00 0.00 0.00 0.00 0.00 0.00 0.00 0.00 0.00 0.00 0.00 0.00 0.00
-0.04 -0.02 -0.01 -0.02 -0.03 -0.03 -0.16 -0.21 -0.24 -0.24 -0.31 -0.43 -0.88 -0.88 -0.96 -0.53 -0.53 -0.42 -0.46 -0.59 -0.59 -0.61 -0.58 -0.50 -0.44 -0.44 -0.39 -0.29 -0.24 -0.24 -0.17 0.00 0.00 0.00 0.00 0.00 0.00 0.00 0.00 0.01 0.01 0.01 0.01 0.02 0.05 0.05 0.02 0.00 0.00 0.00 0.00 0.00 0.00 0.00 0.00 0.00 0.00 0.00 0.00 -0.02 -0.02 -0.06 -0.08 -0.06 -0.05 -0.05 -0.01 0.03 -0.01 -0.01 -0.01 -0.01 -0.00 -0.00 0.00 0.00 0.00 0.00 0.00 0.00 0.00 0.00 0.00 0.00 0.00 0.00 0.00 0.00 0.00 0.00 0.00 0.00 0.00 0.00 0.00 0.00 0.00 0.00 0.00 0.00 0.00 0.00 0.00
-0.02 -0.02 -0.02 -0.02 -0.02 -0.02 -0.07 -0.26 -0.30 -0.30 -0.34 -0.46 -0.85 -0.85 -1.01 -0.69 -0.69 -0.51 -0.62 -0.62 -0.62 -0.66 -0.64 -0.66 -0.49 -0.49 -0.43 -0.41 -0.27 -0.27 -0.15 0.00 0.00 0.00 0.00 0.00 0.00 0.00 0.01 0.01 0.01 0.01 0.01 0.01 0.01 0.01 0.01 0.00 0.00 0.00 0.00 0.00 0.00 0.00 0.00 0.00 0.00 0.00 0.00 0.00 0.00 -0.05 -0.06 -0.04 -0.04 -0.04 -0.05 0.03 0.06 0.06 0.06 -0.01 -0.00 -0.00 0.00 0.00 0.00 0.00 0.00 0.00 0.00 0.00 0.00 0.00 0.00 0.00 0.00 0.00 0.00 0.00 0.00 0.00 0.00 0.00 0.00 0.00 0.00 0.00 0.00 0.00 0.00 0.00 0.00
-0.02 -0.02 -0.02 -0.02 -0.02 -0.02 -0.05 -0.08 -0.31 -0.31 -0.40 -0.55 -0.75 -0.75 -1.15 -1.04 -1.04 -0.92 -0.76 -0.67 -0.67 -0.69 -0.69 -0.70 -0.55 -0.55 -0.45 -0.43 -0.27 -0.27 -0.16 -0.00 0.01 0.01 0.01 0.00 0.00 0.00 0.01 0.01 0.01 0.01 0.01 0.01 0.00 0.00 0.01 0.00 0.00 0.00 0.00 0.00 0.00 0.00 0.00 0.00 0.00 0.00 0.00 0.00 0.00 -0.02 -0.05 -0.04 -0.03 -0.03 -0.02 -0.03 0.04 0.04 0.05 0.03 -0.00 -0.00 0.00 0.01 0.01 0.00 0.00 0.00 0.00 0.00 0.00 0.00 0.00 0.00 0.00 0.00 0.00 0.00 0.00 0.00 0.00 0.00 0.00 0.00 0.00 0.00 0.00 0.00 0.00 0.00 0.00
-0.01 -0.03 -0.03 -0.02 -0.04 -0.04 -0.04 -0.07 -0.27 -0.27 -0.60 -0.70 -0.95 -0.95 -1.17 -1.15 -1.15 -1.04 -0.84 -0.74 -0.74 -0.74 -0.72 -0.73 -0.56 -0.56 -0.41 -0.38 -0.24 -0.24 -0.08 -0.01 0.01 0.01 0.01 0.00 0.00 0.01 0.01 0.01 0.01 0.01 0.01 0.00 0.00 0.00 0.00 0.00 0.00 0.00 0.00 0.00 0.00 0.00 0.00 0.00 0.00 0.00 0.00 -0.00 -0.00 -0.01 -0.05 -0.04 -0.03 -0.03 -0.03 0.05 0.05 0.05 0.05 0.04 0.01 0.01 0.01 0.01 0.01 0.00 0.00 0.00 0.00 0.00 0.00 0.00 0.00 0.00 0.00 0.00 0.00 0.00 0.00 0.00 0.00 0.00 0.00 0.00 0.00 0.00 0.00 0.00 0.00 0.00 0.00
-0.00 -0.01 -0.02 -0.03 -0.13 -0.13 -0.23 -0.33 -0.54 -0.54 -0.73 -0.85 -0.93 -0.93 -1.04 -1.23 -1.23 -1.24 -1.11 -0.96 -0.96 -0.81 -0.76 -0.53 -0.37 -0.37 -0.13 -0.09 -0.05 -0.05 0.01 0.03 0.02 0.02 0.01 0.01 0.01 0.01 0.01 0.02 0.02 0.02 0.02 0.01 0.00 0.00 0.00 0.00 0.00 0.00 0.00 0.00 0.00 0.00 0.00 0.00 0.00 0.00 0.00 0.00 0.00 -0.00 -0.00 -0.02 -0.01 -0.01 -0.01 0.03 0.06 0.06 0.04 0.02 0.02 0.02 0.01 0.00 0.00 0.00 0.00 0.00 0.00 0.00 0.00 0.00 0.00 0.00 0.00 0.00 0.00 0.00 0.00 0.00 0.00 0.00 0.00 0.00 0.00 0.00 0.00 0.00 0.00 0.00 0.00
-0.00 -0.01 -0.02 -0.02 -0.06 -0.06 -0.15 -0.42 -0.65 -0.65 -0.69 -0.80 -0.98 -0.98 -0.92 -1.06 -1.06 -1.19 -1.12 -1.01 -1.01 -0.80 -0.58 -0.40 -0.31 -0.31 -0.20 -0.03 -0.00 -0.00 0.03 0.03 0.03 0.03 0.02 0.01 0.01 0.01 0.02 0.02 0.02 0.02 0.02 0.01 0.01 0.01 0.00 0.00 0.00 0.00 0.00 0.00 0.00 0.00 0.00 0.00 0.00 0.00 0.00 0.00 0.00 -0.00 -0.00 -0.00 0.03 0.03 0.04 0.03 0.02 0.02 0.02 0.02 0.02 0.02 0.02 0.00 0.00 0.00 0.00 0.00 0.00 0.00 0.00 0.00 0.00 0.00 0.00 0.00 0.00 0.00 0.00 0.00 0.00 0.00 0.00 0.00 0.00 0.00 0.00 0.00 0.00 0.00 0.00
-0.00 -0.01 -0.02 -0.02 -0.05 -0.05 -0.15 -0.64 -0.66 -0.66 -0.67 -0.78 -0.88 -0.88 -0.89 -0.96 -0.96 -1.07 -1.02 -0.97 -0.97 -0.37 -0.26 -0.21 -0.24 -0.24 -0.17 -0.00 0.02 0.02 0.03 0.03 0.03 0.03 0.02 0.01 0.01 0.01 0.02 0.02 0.02 0.02 0.02 0.01 0.01 0.01 0.00 0.00 0.00 0.00 0.00 0.00 0.00 0.00 0.00 0.00 0.00 0.01 0.00 0.00 0.00 0.00 0.00 0.01 0.06 0.06 0.04 0.04 0.02 0.02 0.02 0.02 0.03 0.03 0.04 0.01 0.01 0.00 0.00 0.00 0.00 0.00 0.00 0.00 0.00 0.00 0.00 0.00 0.00 0.00 0.00 0.00 0.00 0.00 0.00 0.00 0.00 0.00 0.00 0.00 0.00 0.00 0.00
-0.00 -0.00 -0.02 -0.03 -0.14 -0.14 -0.25 -0.40 -0.67 -0.67 -0.81 -0.75 -0.87 -0.87 -0.77 -0.81 -0.81 -0.90 -0.87 -0.81 -0.81 -0.21 -0.10 -0.09 -0.18 -0.18 -0.14 -0.00 0.02 0.02 0.03 0.04 0.03 0.03 0.03 0.02 0.02 0.01 0.02 0.02 0.02 0.02 0.02 0.01 0.01 0.01 0.00 0.00 0.00 0.00 0.00 0.00 0.00 0.00 0.00 0.01 0.01 0.01 0.01 0.00 0.00 -0.00 -0.00 0.02 0.05 0.05 0.05 0.04 0.05 0.05 0.03 0.05 0.04 0.04 0.06 0.01 0.01 0.00 0.00 0.00 0.00 0.00 0.00 0.00 0.00 0.00 0.00 0.00 0.00 0.00 0.00 0.00 0.00 0.00 0.00 0.00 0.00 0.00 0.00 0.00 0.00 0.00 0.00
-0.00 -0.01 -0.02 -0.05 -0.20 -0.20 -0.21 -0.28 -0.27 -0.27 -0.49 -0.85 -0.76 -0.76 -0.70 -0.76 -0.76 -0.58 -0.63 -0.61 -0.61 -0.41 -0.09 -0.07 -0.14 -0.14 -0.14 -0.08 0.02 0.02 0.02 0.04 0.04 0.04 0.03 0.03 0.03 0.02 0.02 0.02 0.02 0.02 0.02 0.01 0.01 0.01 0.00 0.00 0.00 0.00 0.00 0.00 0.00 0.00 0.01 0.02 0.02 0.01 0.00 0.00 0.00 0.00 -0.00 0.01 0.01 0.01 0.07 0.07 0.08 0.08 0.04 0.06 0.06 0.06 0.06 0.03 0.03 0.00 0.00 0.00 0.00 0.00 0.00 0.00 0.00 0.00 0.00 0.00 0.00 0.00 0.00 0.00 0.00 0.00 0.00 0.00 0.00 0.00 0.00 0.00 0.00 0.00 0.00
-0.00 -0.01 -0.02 -0.04 -0.15 -0.15 -0.20 -0.26 -0.33 -0.33 -0.36 -0.62 -0.71 -0.71 -0.65 -0.58 -0.58 -0.65 -0.40 -0.28 -0.28 -0.30 -0.11 -0.07 -0.07 -0.07 -0.12 -0.10 -0.00 -0.00 0.01 0.03 0.04 0.04 0.03 0.03 0.03 0.03 0.03 0.03 0.03 0.02 0.02 0.02 0.01 0.01 0.00 0.00 0.00 0.00 0.00 0.00 0.00 0.00 0.00 0.01 0.01 0.00 0.00 0.00 0.00 0.00 0.00 0.00 0.02 0.02 0.06 0.08 0.08 0.08 0.05 0.08 0.07 0.07 0.06 0.05 0.05 0.00 0.01 0.00 0.00 0.00 0.00 0.00 0.00 0.00 0.00 0.00 0.00 0.00 0.00 0.00 0.00 0.00 0.00 0.00 0.00 0.00 0.00 0.00 0.00 0.00 0.00
-0.00 -0.00 -0.02 -0.05 -0.10 -0.10 -0.16 -0.22 -0.30 -0.30 -0.39 -0.44 -0.57 -0.57 -0.52 -0.57 -0.57 -0.60 -0.53 -0.18 -0.18 -0.21 -0.17 -0.06 -0.06 -0.06 -0.11 -0.10 -0.02 -0.02 -0.01 0.01 0.03 0.03 0.04 0.03 0.03 0.03 0.03 0.03 0.03 0.03 0.03 0.02 0.02 0.02 0.01 0.00 0.00 0.00 0.00 0.00 0.00 0.00 0.00 0.01 0.01 0.01 0.00 0.01 0.01 0.01 0.00 0.00 0.01 0.01 0.04 0.08 0.08 0.08 0.08 0.10 0.09 0.09 0.09 0.10 0.10 0.02 0.02 0.01 0.01 0.00 0.00 0.00 0.00 0.00 0.00 0.00 0.00 0.00 0.00 0.00 0.00 0.00 0.00 0.00 0.00 0.00 0.00 0.00 0.00 0.00 0.00
-0.00 -0.00 -0.01 -0.01 -0.04 -0.04 -0.12 -0.19 -0.32 -0.32 -0.30 -0.39 -0.41 -0.41 -0.44 -0.45 -0.45 -0.47 -0.45 -0.18 -0.18 -0.16 -0.18 -0.11 -0.07 -0.07 -0.10 -0.09 -0.07 -0.07 -0.01 0.02 0.02 0.02 0.03 0.04 0.04 0.03 0.03 0.04 0.04 0.04 0.03 0.03 0.02 0.02 0.02 0.01 0.01 0.01 0.01 0.01 0.08 0.08 0.04 0.00 0.00 0.00 0.01 -0.00 -0.00 0.00 0.00 0.00 0.00 0.00 0.05 0.09 0.09 0.09 0.07 0.10 0.12 0.12 0.14 0.09 0.09 0.08 0.03 0.02 0.02 0.01 0.00 0.00 0.00 0.00 0.00 0.00 0.00 0.00 0.00 0.00 0.00 0.00 0.00 0.00 0.00 0.00 0.00 0.00 0.00 0.00 0.00
-0.00 -0.00 -0.01 -0.03 -0.06 -0.06 -0.07 -0.13 -0.23 -0.23 -0.35 -0.37 -0.41 -0.41 -0.36 -0.36 -0.36 -0.45 -0.46 -0.27 -0.27 -0.17 -0.13 -0.17 -0.09 -0.09 -0.09 -0.09 -0.06 -0.06 -0.00 0.02 0.02 0.02 0.03 0.03 0.03 0.04 0.03 0.03 0.03 0.04 0.04 0.03 0.02 0.02 0.02 0.01 0.03 0.03 0.02 0.01 0.11 0.11 0.03 0.02 0.02 0.01 0.02 0.00 0.00 0.00 0.00 0.00 0.01 0.01 0.02 0.08 0.13 0.13 0.14 0.13 0.12 0.12 0.11 0.09 0.09 0.08 0.08 0.01 0.01 0.01 0.00 0.00 0.00 0.00 0.00 0.00 0.00 0.00 0.00 0.00 0.00 0.00 0.00 0.00 0.00 0.00 0.00 0.00 0.00 0.00 0.00
0.00 -0.00 -0.01 -0.03 -0.04 -0.04 -0.05 -0.10 -0.15 -0.15 -0.37 -0.51 -0.43 -0.43 -0.39 -0.26 -0.26 -0.40 -0.43 -0.43 -0.43 -0.27 -0.17 -0.13 -0.10 -0.10 -0.08 -0.08 -0.08 -0.08 -0.03 0.02 0.02 0.02 0.02 0.03 0.03 0.04 0.03 0.03 0.03 0.03 0.04 0.04 0.02 0.02 0.02 0.02 0.05 0.05 0.03 0.10 0.10 0.10 0.04 0.04 0.04 0.03 0.04 0.03 0.03 -0.00 0.00 0.01 0.00 0.00 0.02 0.03 0.11 0.11 0.15 0.15 0.12 0.12 0.12 0.12 0.12 0.09 0.10 0.06 0.06 0.01 0.01 0.01 0.00 0.00 0.00 0.00 0.00 0.00 0.00 0.00 0.00 0.00 0.00 0.00 0.00 0.00 0.00 0.00 0.00 0.00 0.00
0.00 -0.00 -0.00 -0.03 -0.05 -0.05 -0.05 -0.08 -0.13 -0.13 -0.32 -0.52 -0.55 -0.55 -0.46 -0.38 -0.38 -0.35 -0.42 -0.44 -0.44 -0.39 -0.26 -0.17 -0.09 -0.09 -0.09 -0.09 -0.07 -0.07 -0.03 0.02 0.02 0.02 0.02 0.04 0.04 0.05 0.02 0.03 0.03 0.03 0.04 0.04 0.04 0.04 0.02 0.02 0.04 0.04 0.05 0.18 0.16 0.16 0.05 0.06 0.06 0.07 0.05 0.03 0.03 -0.00 0.01 0.01 0.01 0.01 0.01 0.01 0.13 0.13 0.13 0.12 0.13 0.13 0.14 0.14 0.14 0.12 0.10 0.08 0.08 0.03 0.01 0.02 0.00 0.00 0.00 0.00 0.00 0.00 0.00 0.00 0.00 0.00 0.00 0.00 0.00 0.00 0.00 0.00 0.00 0.00 0.00
0.00 0.00 -0.00 -0.02 -0.05 -0.05 -0.07 -0.07 -0.10 -0.10 -0.24 -0.43 -0.58 -0.58 -0.73 -0.57 -0.57 -0.48 -0.48 -0.47 -0.47 -0.45 -0.29 -0.19 -0.09 -0.09 -0.08 -0.07 -0.05 -0.05 -0.02 0.02 0.03 0.03 0.03 0.04 0.04 0.05 0.04 0.01 0.01 0.03 0.04 0.04 0.05 0.05 0.04 0.03 0.06 0.06 0.13 0.28 0.20 0.20 0.05 0.06 0.06 0.06 0.07 0.05 0.05 0.04 -0.01 -0.00 0.02 0.02 0.02 0.02 0.06 0.06 0.12 0.09 0.07 0.07 0.07 0.10 0.10 0.10 0.10 0.10 0.10 0.07 0.04 0.02 0.01 0.01 0.00 0.00 0.00 0.00 0.00 0.00 0.00 0.00 0.00 0.00 0.00 0.00 0.00 0.00 0.00 0.00 0.00
0.00 0.00 0.00 -0.01 -0.04 -0.04 -0.07 -0.11 -0.09 -0.09 -0.12 -0.19 -0.36 -0.36 -0.92 -1.05 -1.05 -1.25 -0.62 -0.52 -0.52 -0.39 -0.29 -0.18 -0.12 -0.12 -0.10 -0.08 -0.03 -0.03 -0.02 -0.01 0.02 0.02 0.03 0.03 0.03 0.04 0.04 0.00 0.00 0.02 0.04 0.05 0.06 0.06 0.06 0.04 0.09 0.09 0.26 0.25 0.17 0.17 0.08 0.06 0.06 0.06 0.07 0.06 0.06 0.05 -0.03 -0.02 0.02 0.02 0.05 0.03 0.04 0.04 0.11 0.08 0.05 0.05 0.04 0.05 0.05 0.06 0.08 0.12 0.12 0.09 0.05 0.01 0.00 0.00 0.00 0.00 0.00 0.00 0.00 0.00 0.00 0.00 0.00 0.00 0.00 0.00 0.00 0.00 0.00 0.00 0.00
0.00 0.00 0.00 -0.01 -0.03 -0.03 -0.07 -0.08 -0.10 -0.10 -0.07 -0.11 -0.16 -0.16 -0.77 -0.90 -0.90 -1.18 -0.95 -0.65 -0.65 -0.42 -0.25 -0.16 -0.13 -0.13 -0.09 -0.08 -0.02 -0.02 -0.02 -0.01 -0.01 -0.01 -0.00 -0.01 -0.01 0.00 0.03 0.02 0.02 -0.05 -0.04 -0.01 0.08 0.08 0.08 0.13 0.32 0.32 0.37 0.21 0.19 0.19 0.14 0.06 0.06 0.06 0.07 0.08 0.08 0.04 -0.05 -0.03 0.00 0.00 0.03 0.04 0.06 0.06 0.09 0.09 0.04 0.04 0.04 0.05 0.05 0.06 0.07 0.09 0.09 0.08 0.02 0.01 0.00 0.00 0.00 0.00 0.00 0.00 0.00 0.00 0.00 0.00 0.00 0.00 0.00 0.00 0.00 0.00 0.00 0.00 0.00
0.00 0.00 0.00 0.00 -0.00 -0.00 -0.04 -0.08 -0.08 -0.08 -0.10 -0.08 -0.09 -0.09 -0.53 -0.62 -0.62 -0.85 -0.92 -0.69 -0.69 -0.41 -0.22 -0.25 -0.16 -0.16 -0.10 -0.08 -0.05 -0.05 -0.02 -0.03 -0.03 -0.03 -0.08 -0.07 -0.07 -0.03 0.02 -0.01 -0.01 -0.13 -0.12 -0.11 0.10 0.10 0.20 0.26 0.40 0.40 0.24 0.23 0.19 0.19 0.10 0.07 0.07 0.02 0.04 0.06 0.06 0.07 -0.02 -0.08 -0.00 -0.00 0.03 0.06 0.06 0.06 0.08 0.08 0.06 0.06 0.06 0.07 0.07 0.09 0.09 0.08 0.08 0.06 0.01 0.00 0.00 0.00 0.00 0.00 0.00 0.00 0.00 0.01 0.01 0.01 0.01 0.01 0.01 0.01 0.01 0.00 0.00 0.00 0.00
0.00 0.00 0.00 0.00 -0.00 -0.00 -0.00 -0.07 -0.07 -0.07 -0.07 -0.10 -0.10 -0.10 -0.21 -0.56 -0.56 -0.62 -0.76 -0.64 -0.64 -0.45 -0.22 -0.26 -0.27 -0.27 -0.17 -0.10 -0.04 -0.04 -0.06 -0.06 -0.03 -0.03 -0.07 -0.05 -0.05 -0.07 -0.08 -0.06 -0.06 -0.09 -0.16 -0.15 -0.04 -0.04 0.22 0.36 0.38 0.38 0.19 0.25 0.23 0.23 0.07 0.03 0.03 0.01 0.00 0.00 0.00 0.02 -0.05 -0.12 -0.04 -0.04 0.01 0.02 0.05 0.05 0.08 0.10 0.11 0.11 0.07 0.09 0.09 0.14 0.12 0.08 0.08 0.03 0.01 0.00 0.00 0.00 0.00 0.01 0.01 0.01 0.01 0.01 0.01 0.01 0.00 0.00 0.00 0.00 0.01 0.00 0.00 0.00 0.00
0.00 0.00 0.00 0.00 -0.00 -0.00 -0.00 -0.04 -0.07 -0.07 -0.07 -0.09 -0.14 -0.14 -0.31 -0.50 -0.50 -0.48 -0.49 -0.58 -0.58 -0.46 -0.31 -0.24 -0.28 -0.28 -0.25 -0.17 -0.12 -0.12 -0.04 0.00 0.05 0.05 -0.02 0.02 0.02 -0.03 -0.12 -0.10 -0.10 -0.11 -0.22 -0.05 -0.03 -0.03 0.27 0.38 0.29 0.29 0.15 0.19 0.19 0.19 0.08 0.03 0.03 0.01 -0.00 0.00 0.00 -0.00 -0.03 -0.10 -0.07 -0.07 -0.03 0.02 0.04 0.04 0.08 0.10 0.12 0.12 0.07 0.06 0.06 0.10 0.07 0.05 0.05 0.02 0.01 0.00 0.00 0.00 0.01 0.00 0.00 0.00 0.01 0.00 0.01 0.01 0.01 0.00 0.00 0.00 0.00 0.00 0.00 0.00 0.00
0.00 0.00 0.00 0.00 -0.00 -0.00 -0.00 -0.00 -0.04 -0.04 -0.06 -0.11 -0.19 -0.19 -0.29 -0.38 -0.38 -0.33 -0.28 -0.40 -0.40 -0.46 -0.34 -0.22 -0.23 -0.23 -0.21 -0.20 -0.13 -0.13 -0.08 0.01 0.07 0.07 0.06 0.05 0.05 0.02 -0.02 -0.08 -0.08 -0.10 -0.10 -0.01 0.04 0.04 0.10 0.22 0.20 0.20 0.21 0.19 0.20 0.20 0.16 0.04 0.04 0.05 0.01 -0.00 -0.00 -0.01 -0.04 -0.08 -0.09 -0.09 -0.06 -0.02 0.02 0.02 0.07 0.08 0.11 0.11 0.12 0.09 0.09 0.08 0.07 0.05 0.05 0.01 0.03 0.03 0.00 0.00 0.00 0.01 0.01 0.01 0.01 0.01 0.01 0.01 0.00 0.00 0.00 0.00 0.00 0.00 0.00 0.00 0.00
0.00 0.00 0.00 0.00 0.00 0.00 -0.00 -0.00 -0.01 -0.01 -0.05 -0.08 -0.20 -0.20 -0.24 -0.33 -0.33 -0.19 -0.16 -0.19 -0.19 -0.27 -0.31 -0.24 -0.20 -0.20 -0.21 -0.20 -0.16 -0.16 -0.09 0.02 0.04 0.04 0.07 0.10 0.10 0.05 0.01 -0.04 -0.04 -0.10 -0.07 0.08 0.18 0.18 0.22 0.12 0.17 0.17 0.21 0.20 0.20 0.20 0.17 0.12 0.12 0.08 0.05 0.02 0.02 -0.03 -0.05 -0.05 -0.10 -0.10 -0.06 -0.05 0.03 0.03 0.10 0.08 0.10 0.10 0.15 0.14 0.14 0.11 0.05 0.03 0.03 0.03 0.04 0.04 0.03 0.03 0.01 0.01 0.01 0.01 0.01 0.01 0.01 0.01 0.01 0.00 0.00 0.00 0.00 0.00 0.00 0.00 0.00
0.00 0.00 0.00 0.00 0.00 0.00 0.00 -0.00 -0.01 -0.01 -0.04 -0.08 -0.21 -0.21 -0.23 -0.25 -0.25 -0.14 -0.10 -0.10 -0.10 -0.11 -0.15 -0.19 -0.17 -0.17 -0.18 -0.20 -0.15 -0.15 -0.11 -0.04 0.00 0.00 -0.01 0.04 0.04 0.06 0.00 -0.03 -0.03 -0.08 0.02 0.08 0.30 0.30 0.32 0.21 0.18 0.18 0.27 0.24 0.19 0.19 0.16 0.18 0.18 0.10 0.10 0.06 0.06 -0.01 -0.03 -0.04 -0.07 -0.07 -0.09 -0.07 -0.02 -0.02 0.08 0.10 0.12 0.12 0.19 0.17 0.17 0.14 0.12 0.02 0.02 0.01 0.01 0.02 0.01 0.01 0.01 0.00 0.00 0.00 0.00 0.00 0.00 0.00 0.00 0.00 0.00 0.00 0.00 0.00 0.00 0.00 0.00
0.00 0.00 0.00 0.00 0.00 0.00 0.00 0.00 -0.01 -0.01 -0.04 -0.09 -0.20 -0.20 -0.21 -0.20 -0.20 -0.14 -0.10 -0.07 -0.07 -0.07 -0.06 -0.10 -0.15 -0.15 -0.14 -0.14 -0.13 -0.13 -0.11 -0.09 -0.04 -0.04 -0.11 -0.05 -0.05 -0.00 0.00 0.01 0.01 -0.04 0.11 0.23 0.32 0.32 0.29 0.25 0.28 0.28 0.30 0.28 0.22 0.22 0.20 0.24 0.24 0.16 0.12 0.08 0.08 0.02 -0.02 -0.02 -0.03 -0.03 -0.10 -0.07 -0.06 -0.06 0.01 0.11 0.12 0.12 0.14 0.18 0.18 0.16 0.11 0.01 0.01 0.01 0.00 0.01 0.00 0.00 0.00 0.00 0.00 0.00 0.00 0.00 0.00 0.00 0.00 0.00 0.00 0.00 0.00 0.00 0.00 0.00 0.00
0.00 0.00 0.00 0.00 0.00 0.00 0.00 0.00 -0.00 -0.00 -0.04 -0.09 -0.20 -0.20 -0.19 -0.17 -0.17 -0.11 -0.10 -0.08 -0.08 -0.05 -0.06 -0.06 -0.12 -0.12 -0.11 -0.12 -0.19 -0.19 -0.13 -0.09 -0.11 -0.11 -0.13 -0.15 -0.15 -0.11 -0.09 -0.09 -0.09 -0.07 0.06 0.15 0.21 0.21 0.25 0.27 0.29 0.29 0.34 0.28 0.24 0.24 0.28 0.32 0.32 0.23 0.18 0.10 0.10 0.05 0.03 0.00 0.01 0.01 -0.01 -0.06 -0.07 -0.07 -0.04 0.08 0.05 0.05 0.12 0.17 0.17 0.14 0.10 0.03 0.03 0.00 0.00 0.00 0.00 0.00 0.00 0.00 0.00 0.00 0.00 0.00 0.00 0.00 0.00 0.01 0.01 0.00 0.00 0.00 0.00 0.00 0.00
0.00 0.00 0.00 0.00 0.00 0.00 0.00 0.00 0.00 0.00 -0.04 -0.12 -0.23 -0.23 -0.19 -0.13 -0.13 -0.10 -0.07 -0.07 -0.07 -0.07 -0.05 -0.07 -0.11 -0.11 -0.12 -0.13 -0.13 -0.13 -0.16 -0.15 -0.14 -0.14 -0.22 -0.18 -0.18 -0.14 -0.17 -0.18 -0.18 -0.14 -0.05 0.05 0.11 0.11 0.25 0.31 0.35 0.35 0.39 0.38 0.40 0.40 0.40 0.33 0.33 0.25 0.21 0.12 0.12 0.09 0.08 0.04 0.03 0.03 0.01 0.03 -0.06 -0.06 -0.04 -0.02 0.06 0.06 0.09 0.14 0.14 0.16 0.09 0.03 0.03 0.01 0.00 0.00 0.00 0.00 0.00 0.00 0.00 0.00 0.00 0.00 0.01 0.01 0.01 0.01 0.01 0.01 0.01 0.00 0.00 0.00 0.00
0.00 0.00 0.00 0.00 0.00 0.00 0.00 0.00 0.00 0.00 -0.02 -0.05 -0.11 -0.11 -0.11 -0.08 -0.08 -0.07 -0.05 -0.04 -0.04 -0.04 -0.06 -0.07 -0.10 -0.10 -0.12 -0.24 -0.21 -0.21 -0.22 -0.27 -0.22 -0.22 -0.23 -0.31 -0.31 -0.35 -0.35 -0.37 -0.37 -0.31 -0.24 -0.01 0.06 0.06 0.19 0.27 0.37 0.37 0.46 0.59 0.60 0.60 0.41 0.24 0.24 0.28 0.28 0.25 0.25 0.26 0.20 0.13 0.14 0.14 0.09 0.12 0.07 0.07 0.01 -0.01 0.10 0.10 0.16 0.19 0.19 0.14 0.07 0.02 0.02 0.01 0.01 0.01 0.00 0.00 0.00 0.00 0.00 0.00 0.00 0.03 0.03 0.03 0.02 0.06 0.06 0.06 0.04 0.05 0.05 0.01 0.00
0.00 0.00 0.00 0.00 0.00 0.00 0.00 0.00 0.00 0.00 -0.01 -0.03 -0.07 -0.07 -0.09 -0.07 -0.07 -0.06 -0.05 -0.04 -0.04 -0.04 -0.07 -0.08 -0.09 -0.09 -0.08 -0.18 -0.21 -0.21 -0.28 -0.23 -0.29 -0.29 -0.31 -0.33 -0.33 -0.38 -0.40 -0.41 -0.41 -0.24 -0.15 -0.07 0.13 0.13 0.20 0.29 0.43 0.43 0.59 0.74 0.74 0.74 0.35 0.22 0.22 0.17 0.21 0.25 0.25 0.32 0.34 0.26 0.22 0.22 0.27 0.22 0.12 0.12 0.05 0.11 0.13 0.13 0.16 0.17 0.17 0.16 0.10 0.05 0.05 0.02 0.04 0.02 0.01 0.01 0.04 0.04 0.03 0.03 0.04 0.08 0.07 0.07 0.06 0.12 0.12 0.08 0.07 0.06 0.06 0.04 0.00
0.00 0.00 0.00 0.00 0.00 0.00 0.00 0.00 -0.00 -0.00 -0.00 -0.02 -0.04 -0.04 -0.07 -0.06 -0.06 -0.05 -0.05 -0.04 -0.04 -0.04 -0.09 -0.08 -0.09 -0.09 -0.11 -0.11 -0.24 -0.24 -0.38 -0.41 -0.43 -0.43 -0.43 -0.37 -0.37 -0.35 -0.36 -0.38 -0.38 -0.22 -0.23 -0.16 0.11 0.11 0.23 0.26 0.33 0.33 0.76 0.79 0.67 0.67 0.35 0.23 0.23 0.18 0.16 0.27 0.27 0.32 0.41 0.35 0.29 0.29 0.26 0.30 0.24 0.24 0.13 0.13 0.12 0.12 0.13 0.13 0.13 0.14 0.16 0.11 0.11 0.08 0.10 0.07 0.06 0.06 0.12 0.10 0.09 0.09 0.09 0.13 0.11 0.11 0.13 0.15 0.15 0.13 0.07 0.10 0.10 0.08 0.05
0.00 0.00 0.00 0.00 0.00 0.00 0.00 0.00 -0.00 -0.00 -0.01 -0.02 -0.03 -0.03 -0.05 -0.06 -0.06 -0.04 -0.04 -0.04 -0.04 -0.04 -0.07 -0.08 -0.11 -0.11 -0.12 -0.13 -0.24 -0.24 -0.30 -0.26 -0.42 -0.42 -0.45 -0.39 -0.39 -0.32 -0.33 -0.26 -0.26 -0.23 -0.35 -0.27 -0.22 -0.22 0.12 -0.03 0.24 0.24 0.67 0.70 0.59 0.59 0.50 0.28 0.28 0.21 0.23 0.27 0.27 0.37 0.46 0.42 0.31 0.31 0.33 0.34 0.36 0.36 0.20 0.17 0.12 0.12 0.12 0.14 0.14 0.18 0.20 0.19 0.19 0.14 0.21 0.18 0.13 0.13 0.19 0.18 0.17 0.17 0.26 0.24 0.20 0.20 0.16 0.19 0.19 0.17 0.15 0.17 0.17 0.12 0.06
0.00 0.00 0.00 0.00 0.00 0.00 0.00 -0.00 -0.00 -0.00 -0.01 -0.02 -0.02 -0.02 -0.04 -0.05 -0.05 -0.04 -0.03 -0.03 -0.03 -0.03 -0.05 -0.08 -0.11 -0.11 -0.14 -0.15 -0.17 -0.17 -0.18 -0.19 -0.24 -0.24 -0.33 -0.32 -0.32 -0.31 -0.31 -0.27 -0.27 -0.45 -0.51 -0.47 -0.43 -0.43 -0.32 -0.24 0.00 0.00 0.29 0.54 0.52 0.52 0.44 0.43 0.43 0.25 0.23 0.24 0.24 0.42 0.46 0.44 0.36 0.36 0.37 0.33 0.33 0.33 0.25 0.22 0.21 0.21 0.17 0.17 0.17 0.16 0.20 0.25 0.25 0.25 0.36 0.33 0.28 0.28 0.31 0.25 0.23 0.23 0.31 0.35 0.33 0.33 0.27 0.32 0.32 0.26 0.23 0.28 0.28 0.21 0.07
0.00 0.00 0.00 0.00 0.00 0.00 0.00 -0.00 -0.00 -0.00 -0.01 -0.02 -0.02 -0.02 -0.02 -0.03 -0.03 -0.02 -0.01 -0.01 -0.01 -0.02 -0.03 -0.07 -0.11 -0.11 -0.14 -0.20 -0.18 -0.18 -0.13 -0.13 -0.13 -0.13 -0.26 -0.30 -0.30 -0.30 -0.29 -0.39 -0.39 -0.47 -0.56 -0.58 -0.52 -0.52 -0.46 -0.24 -0.07 -0.07 0.13 0.30 0.40 0.40 0.31 0.35 0.35 0.27 0.24 0.25 0.25 0.40 0.47 0.47 0.43 0.43 0.37 0.28 0.26 0.26 0.25 0.14 0.12 0.12 0.12 0.13 0.13 0.15 0.16 0.22 0.22 0.28 0.35 0.45 0.49 0.49 0.53 0.43 0.34 0.34 0.36 0.32 0.36 0.36 0.36 0.39 0.39 0.39 0.32 0.30 0.30 0.22 0.15
0.00 0.00 0.00 0.00 0.00 0.00 -0.00 -0.00 -0.00 -0.00 -0.01 -0.01 -0.01 -0.01 -0.02 -0.02 -0.02 -0.01 -0.00 -0.00 -0.00 -0.02 -0.03 -0.06 -0.09 -0.09 -0.13 -0.18 -0.15 -0.15 -0.10 -0.09 -0.09 -0.09 -0.30 -0.44 -0.44 -0.43 -0.35 -0.52 -0.52 -0.50 -0.55 -0.60 -0.59 -0.59 -0.53 -0.40 -0.05 -0.05 0.11 0.23 0.26 0.26 0.28 0.29 0.29 0.26 0.29 0.34 0.34 0.39 0.39 0.49 0.40 0.40 0.37 0.25 0.18 0.18 0.18 0.12 0.09 0.09 0.11 0.12 0.12 0.20 0.16 0.17 0.17 0.21 0.20 0.30 0.43 0.43 0.34 0.44 0.46 0.46 0.41 0.35 0.30 0.30 0.34 0.34 0.34 0.38 0.38 0.28 0.28 0.24 0.18
0.00 0.00 0.00 0.00 0.00 0.00 -0.00 -0.00 -0.00 -0.00 -0.01 -0.01 -0.01 -0.01 -0.02 -0.02 -0.02 -0.01 -0.00 -0.01 -0.01 -0.01 -0.05 -0.10 -0.11 -0.11 -0.09 -0.10 -0.12 -0.12 -0.11 -0.07 -0.08 -0.08 -0.33 -0.41 -0.41 -0.41 -0.46 -0.58 -0.58 -0.58 -0.53 -0.48 -0.53 -0.53 -0.51 -0.39 -0.22 -0.22 0.13 0.21 0.23 0.23 0.27 0.27 0.27 0.21 0.26 0.38 0.38 0.30 0.31 0.36 0.37 0.37 0.33 0.34 0.17 0.17 0.14 0.14 0.11 0.11 0.15 0.19 0.19 0.26 0.25 0.21 0.21 0.20 0.25 0.25 0.28 0.28 0.23 0.23 0.28 0.28 0.25 0.30 0.33 0.33 0.32 0.34 0.34 0.35 0.34 0.32 0.32 0.28 0.23
0.00 0.00 0.00 0.00 0.00 0.00 -0.00 -0.00 -0.01 -0.01 -0.01 -0.01 -0.01 -0.01 -0.02 -0.02 -0.02 -0.02 -0.01 -0.02 -0.02 -0.02 -0.05 -0.11 -0.14 -0.14 -0.05 -0.06 -0.08 -0.08 -0.11 -0.12 -0.19 -0.19 -0.33 -0.31 -0.31 -0.34 -0.48 -0.67 -0.67 -0.86 -0.71 -0.52 -0.44 -0.44 -0.44 -0.34 -0.20 -0.20 0.09 0.17 0.23 0.23 0.21 0.29 0.29 0.23 0.20 0.16 0.16 0.19 0.21 0.28 0.33 0.33 0.25 0.30 0.25 0.25 0.16 0.14 0.14 0.14 0.17 0.25 0.25 0.36 0.34 0.30 0.30 0.33 0.33 0.32 0.29 0.29 0.25 0.22 0.19 0.19 0.21 0.20 0.23 0.23 0.27 0.19 0.19 0.27 0.31 0.21 0.21 0.22 0.22
0.00 0.00 0.00 0.00 0.00 0.00 -0.00 -0.00 -0.01 -0.01 -0.01 -0.02 -0.03 -0.03 -0.03 -0.03 -0.03 -0.03 -0.02 -0.02 -0.02 -0.02 -0.04 -0.08 -0.14 -0.14 -0.14 -0.03 -0.06 -0.06 -0.16 -0.23 -0.31 -0.31 -0.34 -0.31 -0.31 -0.45 -0.60 -0.94 -0.94 -1.13 -0.86 -0.72 -0.54 -0.54 -0.40 -0.31 -0.18 -0.18 -0.11 0.06 0.13 0.13 0.11 0.18 0.18 0.23 0.19 0.14 0.14 0.14 0.16 0.19 0.26 0.26 0.17 0.22 0.18 0.18 0.17 0.14 0.17 0.17 0.23 0.28 0.28 0.33 0.34 0.35 0.35 0.31 0.32 0.33 0.32 0.32 0.29 0.26 0.24 0.24 0.26 0.23 0.19 0.19 0.18 0.19 0.19 0.19 0.20 0.20 0.20 0.21 0.22
0.00 0.00 0.00 0.00 0.00 0.00 -0.00 -0.00 -0.01 -0.01 -0.01 -0.02 -0.03 -0.03 -0.04 -0.04 -0.04 -0.04 -0.03 -0.03 -0.03 -0.03 -0.03 -0.06 -0.10 -0.10 -0.14 -0.04 -0.11 -0.11 -0.10 -0.19 -0.39 -0.39 -0.37 -0.35 -0.35 -0.46 -0.88 -0.99 -0.99 -1.04 -0.73 -0.79 -0.61 -0.61 -0.50 -0.30 -0.18 -0.18 -0.12 -0.07 -0.04 -0.04 0.02 0.06 0.06 0.13 0.14 0.11 0.11 0.12 0.15 0.14 0.15 0.15 0.13 0.15 0.13 0.13 0.13 0.09 0.18 0.18 0.24 0.28 0.28 0.28 0.30 0.30 0.30 0.21 0.22 0.27 0.29 0.29 0.23 0.26 0.28 0.28 0.25 0.23 0.21 0.21 0.20 0.22 0.22 0.22 0.21 0.13 0.13 0.15 0.17
0.00 0.00 0.00 0.00 0.00 0.00 -0.00 -0.01 -0.01 -0.01 -0.02 -0.02 -0.02 -0.02 -0.04 -0.04 -0.04 -0.04 -0.04 -0.03 -0.03 -0.04 -0.04 -0.05 -0.07 -0.07 -0.11 -0.09 -0.05 -0.05 -0.06 -0.09 -0.37 -0.37 -0.39 -0.35 -0.35 -0.51 -0.79 -0.67 -0.67 -0.64 -0.57 -0.74 -0.69 -0.69 -0.45 -0.31 -0.26 -0.26 -0.16 -0.09 -0.06 -0.06 0.00 0.04 0.04 0.05 0.08 0.09 0.09 0.12 0.14 0.14 0.14 0.14 0.12 0.14 0.11 0.11 0.10 0.11 0.13 0.13 0.24 0.27 0.27 0.16 0.17 0.19 0.19 0.11 0.12 0.14 0.19 0.19 0.12 0.16 0.21 0.21 0.16 0.15 0.16 0.16 0.18 0.12 0.12 0.13 0.14 0.06 0.06 0.06 0.06
0.00 0.00 0.00 0.00 0.00 0.00 -0.00 -0.02 -0.01 -0.01 -0.02 -0.01 -0.01 -0.01 -0.04 -0.04 -0.04 -0.04 -0.03 -0.03 -0.03 -0.03 -0.05 -0.07 -0.06 -0.06 -0.08 -0.07 -0.06 -0.06 -0.07 -0.12 -0.20 -0.20 -0.39 -0.46 -0.46 -0.60 -0.76 -0.78 -0.78 -0.78 -0.79 -0.81 -0.73 -0.73 -0.38 -0.33 -0.34 -0.34 -0.20 -0.15 -0.16 -0.16 0.00 0.03 0.03 0.04 0.06 0.08 0.08 0.13 0.16 0.17 0.12 0.12 0.10 0.11 0.12 0.12 0.10 0.11 0.13 0.13 0.17 0.18 0.18 0.10 0.10 0.11 0.11 0.09 0.08 0.08 0.08 0.08 0.06 0.09 0.12 0.12 0.09 0.09 0.09 0.09 0.08 0.08 0.08 0.08 0.07 0.07 0.07 0.06 0.05
0.00 0.00 0.00 0.00 0.00 0.00 -0.00 -0.02 -0.01 -0.01 -0.02 -0.02 -0.02 -0.02 -0.02 -0.03 -0.03 -0.02 -0.02 -0.02 -0.02 -0.03 -0.05 -0.07 -0.04 -0.04 -0.04 -0.06 -0.11 -0.11 -0.17 -0.15 -0.15 -0.15 -0.41 -0.63 -0.63 -0.73 -0.77 -0.92 -0.92 -1.13 -1.16 -1.03 -0.52 -0.52 -0.34 -0.37 -0.46 -0.46 -0.28 -0.20 -0.18 -0.18 -0.09 0.04 0.04 0.06 0.07 0.08 0.08 0.13 0.17 0.17 0.14 0.14 0.09 0.11 0.12 0.12 0.11 0.10 0.11 0.11 0.11 0.09 0.09 0.11 0.11 0.11 0.11 0.11 0.08 0.07 0.06 0.06 0.06 0.06 0.08 0.08 0.06 0.06 0.07 0.07 0.08 0.08 0.08 0.08 0.08 0.09 0.09 0.08 0.07
0.00 0.00 0.00 0.00 0.00 0.00 -0.00 -0.01 -0.02 -0.02 -0.03 -0.02 -0.02 -0.02 -0.02 -0.02 -0.02 -0.03 -0.03 -0.03 -0.03 -0.04 -0.05 -0.07 -0.03 -0.03 -0.02 -0.07 -0.13 -0.13 -0.24 -0.24 -0.23 -0.23 -0.28 -0.65 -0.65 -0.82 -0.87 -0.84 -0.84 -0.81 -0.97 -0.90 -0.56 -0.56 -0.40 -0.45 -0.63 -0.63 -0.56 -0.19 -0.15 -0.15 -0.07 0.01 0.01 0.08 0.08 0.11 0.11 0.12 0.16 0.17 0.13 0.13 0.10 0.12 0.13 0.13 0.14 0.13 0.10 0.10 0.09 0.10 0.10 0.12 0.12 0.12 0.12 0.10 0.09 0.07 0.06 0.06 0.06 0.05 0.05 0.05 0.04 0.05 0.06 0.06 0.05 0.06 0.06 0.07 0.08 0.09 0.09 0.10 0.09
0.00 0.00 0.00 0.00 0.00 0.00 -0.00 -0.01 -0.03 -0.03 -0.03 -0.03 -0.02 -0.02 -0.02 -0.03 -0.03 -0.04 -0.04 -0.04 -0.04 -0.04 -0.04 -0.05 -0.06 -0.06 -0.05 -0.08 -0.18 -0.18 -0.30 -0.42 -0.39 -0.39 -0.35 -0.44 -0.44 -0.78 -0.92 -0.89 -0.89 -0.69 -0.68 -0.61 -0.61 -0.61 -0.68 -0.67 -0.64 -0.64 -0.45 -0.20 -0.13 -0.13 -0.08 -0.02 -0.02 0.08 0.10 0.13 0.13 0.14 0.17 0.17 0.14 0.14 0.11 0.11 0.13 0.13 0.15 0.15 0.13 0.13 0.09 0.10 0.10 0.10 0.11 0.12 0.12 0.08 0.07 0.07 0.06 0.06 0.04 0.03 0.04 0.04 0.03 0.04 0.05 0.05 0.05 0.06 0.06 0.06 0.08 0.08 0.08 0.08 0.09
0.00 0.00 0.00 0.00 0.00 0.00 0.00 -0.00 -0.02 -0.02 -0.04 -0.03 -0.02 -0.02 -0.03 -0.03 -0.03 -0.03 -0.03 -0.03 -0.03 -0.04 -0.05 -0.06 -0.07 -0.07 -0.09 -0.10 -0.17 -0.17 -0.28 -0.43 -0.43 -0.43 -0.40 -0.42 -0.42 -0.63 -0.81 -0.87 -0.87 -0.87 -0.73 -0.60 -0.55 -0.55 -0.58 -0.80 -0.51 -0.51 -0.38 -0.33 -0.12 -0.12 -0.09 -0.03 -0.03 0.03 0.10 0.12 0.12 0.16 0.19 0.17 0.14 0.14 0.12 0.12 0.11 0.11 0.16 0.16 0.14 0.14 0.11 0.09 0.09 0.09 0.10 0.10 0.10 0.07 0.07 0.07 0.06 0.06 0.08 0.04 0.03 0.03 0.02 0.02 0.03 0.03 0.04 0.05 0.05 0.06 0.07 0.09 0.09 0.09 0.10
0.00 0.00 0.00 0.00 0.00 0.00 0.00 -0.00 -0.02 -0.02 -0.04 -0.03 -0.03 -0.03 -0.03 -0.03 -0.03 -0.03 -0.03 -0.03 -0.03 -0.03 -0.05 -0.07 -0.07 -0.07 -0.09 -0.10 -0.13 -0.13 -0.19 -0.28 -0.45 -0.45 -0.48 -0.53 -0.53 -0.58 -0.65 -0.74 -0.74 -0.76 -0.81 -0.64 -0.48 -0.48 -0.45 -0.54 -0.45 -0.45 -0.38 -0.26 -0.17 -0.17 -0.06 -0.02 -0.02 0.04 0.08 0.12 0.12 0.16 0.20 0.20 0.14 0.14 0.12 0.11 0.11 0.11 0.13 0.14 0.13 0.13 0.12 0.10 0.10 0.08 0.09 0.09 0.09 0.10 0.10 0.10 0.10 0.10 0.05 0.04 0.02 0.02 0.02 0.02 0.03 0.03 0.06 0.08 0.08 0.08 0.09 0.05 0.05 0.06 0.07
0.00 0.00 0.00 0.00 0.00 0.00 0.00 -0.00 -0.01 -0.01 -0.04 -0.04 -0.03 -0.03 -0.03 -0.03 -0.03 -0.03 -0.03 -0.04 -0.04 -0.04 -0.05 -0.07 -0.09 -0.09 -0.11 -0.08 -0.11 -0.11 -0.16 -0.25 -0.40 -0.40 -0.53 -0.64 -0.64 -0.55 -0.56 -0.63 -0.63 -0.64 -0.66 -0.58 -0.51 -0.51 -0.42 -0.36 -0.37 -0.37 -0.34 -0.18 -0.15 -0.15 -0.10 0.02 0.02 0.05 0.07 0.09 0.09 0.14 0.18 0.20 0.18 0.18 0.12 0.11 0.11 0.11 0.13 0.12 0.12 0.12 0.11 0.12 0.12 0.11 0.10 0.11 0.11 0.09 0.08 0.07 0.06 0.06 0.04 0.03 0.03 0.03 0.04 0.05 0.06 0.06 0.04 0.04 0.04 0.04 0.05 0.01 0.01 0.01 0.01